Wind_Speed
14 14 14 14 13 13 13 12 12 12 12 12 11 11 11 11 11 11 11 10 10 10 10 11 11 11 11 12 13 13 14 15 15 16 16 17 17 18 19 19 20 20 21
14 14 14 14 14 13 13 13 12 12 12 12 12 12 12 12 12 12 12 12 12 12 12 12 12 12 13 14 14 15 16 16 17 17 18 18 19 20 20 21 22 23 23
15 14 14 14 14 14 14 14 13 13 13 13 13 13 13 13 13 14 14 14 14 13 13 13 13 14 14 15 16 16 16 17 18 19 19 20 20 21 22 23 24 25 26
15 15 15 15 14 15 15 14 14 14 14 14 14 14 14 14 14 14 15 15 15 14 14 14 15 15 16 17 17 18 18 19 19 20 21 22 22 24 25 26 27 28 29
16 15 15 16 15 15 16 16 15 15 15 15 15 15 15 15 15 16 16 16 16 15 16 16 17 17 18 18 18 19 20 21 22 23 23 24 25 26 27 28 29 30 31
17 16 16 16 16 16 17 16 16 16 16 16 15 16 16 17 17 17 17 17 17 17 17 17 18 19 19 19 20 21 22 23 24 24 25 26 27 28 29 30 31 32 33
18 17 17 17 17 17 17 16 16 17 17 16 16 17 17 17 17 18 18 18 19 19 19 20 20 20 21 21 22 23 24 25 26 27 27 28 30 31 32 33 33 34 35
18 18 18 18 18 18 18 18 18 17 17 17 17 17 17 17 18 18 19 19 20 20 20 21 21 21 22 23 24 24 25 27 28 29 30 31 32 33 34 35 35 36 37
18 19 19 19 19 19 19 19 18 18 18 18 17 17 17 18 18 19 20 20 20 20 21 21 22 23 24 25 26 26 27 28 30 31 32 33 35 36 36 37 38 39 40
18 18 19 19 19 18 19 19 19 18 18 17 17 17 18 19 19 19 19 20 20 20 21 22 23 24 26 27 27 28 30 31 33 34 35 36 37 38 38 39 41 42 42
18 18 18 18 18 18 18 18 18 18 18 18 18 18 19 19 20 20 20 20 20 21 22 23 25 26 27 28 29 30 32 33 35 36 36 37 39 40 41 42 43 44 44
17 17 18 18 18 18 18 19 19 20 20 19 19 19 19 20 21 21 21 22 22 23 24 25 26 28 29 30 31 32 34 35 36 37 38 39 40 41 42 43 43 44 45
17 17 17 17 17 18 19 19 19 20 19 19 19 20 21 21 22 22 22 23 24 25 26 27 28 29 31 32 33 35 36 37 37 38 39 40 41 42 43 44 44 45 47
18 17 17 18 18 19 19 19 20 20 20 20 20 21 22 22 22 23 23 24 26 26 27 28 29 31 32 33 34 35 36 37 38 39 40 41 42 43 45 45 46 47 48
18 18 19 19 19 19 20 21 21 20 20 20 21 22 22 22 23 24 24 25 26 27 28 29 31 32 33 34 35 36 37 38 39 40 41 42 44 45 45 46 47 48 49
19 19 19 20 21 20 20 20 20 21 22 22 22 22 23 24 24 25 25 26 28 29 30 30 31 32 33 34 36 37 38 39 40 41 42 44 44 45 46 47 48 48 48
20 20 20 21 21 21 21 21 21 22 22 23 23 23 24 25 26 26 27 28 30 31 31 31 32 33 34 35 36 38 39 40 41 42 43 45 46 46 47 47 48 48 48
20 20 21 21 21 21 22 22 22 22 23 23 24 25 25 26 26 27 28 29 31 31 32 33 33 34 35 37 37 39 40 41 42 43 44 46 46 46 47 47 47 48 48
21 21 21 21 21 22 22 23 23 24 24 25 25 26 26 27 27 29 30 31 31 32 33 34 35 36 37 38 39 40 42 43 43 43 44 45 46 46 47 47 47 47 47
22 22 23 23 23 23 23 24 24 25 25 26 26 26 27 28 29 30 31 32 33 34 34 35 36 37 38 39 40 41 42 43 43 43 44 45 45 46 46 46 46 46 46
23 23 24 24 24 24 25 25 26 26 26 26 27 27 28 29 30 31 32 33 34 35 36 36 37 38 39 40 41 42 43 43 43 43 44 44 45 46 46 46 46 46 46
24 25 25 25 25 25 26 26 27 27 27 27 28 29 30 30 31 32 33 34 35 36 36 37 38 39 40 41 42 42 43 43 43 43 43 44 45 46 46 46 46 46 46
25 25 25 26 26 27 27 28 28 28 28 29 29 30 31 32 33 34 34 35 36 36 37 39 40 41 41 42 42 42 42 42 42 42 43 44 45 45 46 46 47 46 46
26 26 26 26 27 27 28 28 29 29 30 31 31 32 33 33 34 35 36 36 37 37 38 39 40 40 41 41 41 42 42 41 42 43 44 44 45 46 46 47 47 46 46
27 27 27 28 28 28 29 29 29 30 30 31 32 33 34 34 35 35 36 36 37 38 39 39 39 39 40 40 40 41 41 42 43 43 44 44 46 46 46 46 46 46 46
29 29 30 30 30 30 30 30 30 30 31 32 33 33 34 35 35 35 36 37 37 38 38 38 39 39 40 40 40 41 41 42 43 43 44 45 46 46 46 46 46 46 46
Wind_Direction
243 243 246 248 250 251 252 253 257 260 262 261 260 264 267 269 272 277 280 281 283 287 289 290 292 295 297 301 302 300 302 303 305 307 307 307 307 306 307 308 307 305 305
243 243 245 247 248 250 251 254 257 261 263 263 264 267 269 271 273 276 278 281 281 286 289 291 294 296 298 300 301 302 301 301 302 304 306 306 305 305 306 306 306 305 305
243 244 246 247 249 251 251 256 260 262 261 262 264 266 269 272 273 275 277 278 281 284 286 290 294 297 298 299 300 302 303 302 302 303 304 304 304 303 304 304 304 305 304
243 245 246 247 250 253 254 256 260 262 262 263 263 265 268 271 274 275 276 277 280 283 285 289 293 295 297 299 300 302 304 305 304 303 303 303 303 303 303 304 305 305 304
242 244 247 249 252 254 255 257 260 263 264 262 262 265 268 270 273 275 276 277 278 282 285 289 292 294 297 298 300 301 303 304 304 304 303 303 303 304 304 305 305 304 304
244 247 250 250 252 255 256 259 262 264 265 263 262 266 270 272 274 275 277 278 279 281 285 288 292 294 296 297 298 300 301 302 303 304 303 303 304 304 304 305 305 304 303
245 248 248 249 253 256 257 261 263 265 265 266 267 270 271 271 273 276 278 279 280 281 284 286 289 292 295 298 299 299 300 300 301 302 303 304 304 304 305 305 305 304 304
246 248 249 252 255 258 259 262 264 264 265 269 270 270 270 272 274 276 278 280 281 282 283 285 288 292 295 296 297 299 301 302 301 301 302 303 304 305 306 306 305 305 305
249 251 252 254 257 258 259 261 263 266 269 272 271 270 272 274 278 279 280 280 280 281 283 286 290 293 295 296 297 299 300 300 301 303 303 304 304 305 305 306 306 306 306
250 252 254 254 257 259 260 262 265 267 270 272 273 272 274 278 280 282 283 282 282 283 285 288 291 294 296 297 297 298 299 301 302 303 304 305 306 306 306 306 306 306 306
251 254 257 258 259 260 260 261 263 266 269 272 274 275 278 282 282 283 283 283 284 284 286 289 291 294 296 297 297 299 300 301 302 304 305 306 306 306 306 306 306 306 307
255 257 257 258 258 257 257 259 262 267 269 272 274 276 279 282 283 284 284 284 284 287 289 291 292 294 295 296 297 298 300 301 302 303 305 305 306 306 306 306 306 307 307
258 257 256 257 257 257 260 262 265 270 270 272 276 279 281 282 284 284 285 286 286 289 291 292 294 295 295 296 298 299 300 301 303 304 305 305 306 306 306 307 307 306 307
257 256 256 257 260 262 264 267 270 273 272 274 278 280 282 283 284 284 285 287 289 291 292 294 296 298 298 298 299 301 302 303 304 304 304 305 305 306 306 307 307 306 307
256 255 256 258 260 262 266 268 270 272 275 278 281 282 282 285 286 286 288 290 293 293 293 295 297 298 299 300 301 302 303 304 305 306 306 306 306 307 307 307 307 308 308
254 256 256 258 260 263 266 268 270 273 275 278 282 284 285 287 287 288 289 291 295 295 295 296 298 299 300 301 303 304 304 305 306 306 307 307 307 308 308 308 308 308 308
255 257 259 261 263 265 267 268 271 274 277 280 282 285 286 288 289 289 290 292 294 296 298 298 299 301 301 302 304 305 305 306 307 307 308 308 308 308 309 309 309 309 310
257 259 261 263 265 266 268 270 273 276 278 280 283 285 287 289 289 291 292 294 295 296 297 298 299 301 302 303 304 305 306 307 308 309 309 309 309 309 310 311 311 311 311
259 261 262 263 264 266 269 272 274 277 279 281 283 285 287 289 290 291 293 295 296 297 297 298 299 301 303 305 306 306 307 307 308 309 309 310 310 311 312 312 313 313 313
258 261 263 264 265 268 271 273 275 277 280 282 283 285 287 289 291 292 294 296 297 297 298 298 300 302 304 305 306 307 308 308 308 308 309 310 311 312 312 313 313 314 314
259 261 263 266 267 269 272 274 276 278 280 282 283 285 287 290 291 293 295 296 298 299 299 300 301 302 304 305 306 308 308 308 308 309 310 311 312 312 313 314 314 314 314
261 262 264 266 269 270 272 274 275 277 279 281 283 285 288 290 291 292 295 297 298 299 300 301 302 302 303 304 305 307 307 308 308 309 310 311 312 313 313 314 314 314 314
261 263 265 266 268 270 273 275 275 277 280 282 284 286 289 291 293 294 295 297 298 299 300 301 302 302 303 304 305 306 307 308 309 309 310 311 312 313 313 314 314 314 314
262 264 266 267 268 271 273 274 275 277 280 283 284 286 289 291 293 295 295 296 298 299 301 302 303 303 303 304 305 306 307 308 309 309 310 311 312 313 313 313 313 314 314
263 265 267 268 269 271 274 276 278 279 281 283 285 287 289 291 293 294 296 297 298 300 302 303 303 305 306 306 306 307 308 308 309 310 311 312 313 313 313 314 314 314 314
266 267 268 269 270 272 275 277 278 280 281 283 285 287 290 291 292 293 294 297 299 301 302 303 303 304 306 307 308 308 309 309 311 311 312 313 314 314 314 314 314 314 315
Height
5851 5852 5853 5854 5855 5856 5857 5857 5857 5858 5858 5858 5859 5859 5859 5860 5859 5859 5859 5858 5858 5857 5857 5856 5855 5854 5854 5853 5851 5850 5849 5848 5846 5845 5843 5841 5840 5838 5836 5834 5832 5830 5828
5848 5849 5850 5851 5852 5853 5854 5854 5855 5855 5855 5856 5856 5856 5856 5856 5856 5856 5856 5856 5855 5855 5854 5853 5852 5851 5850 5849 5848 5847 5845 5844 5843 5841 5839 5837 5836 5834 5832 5830 5827 5825 5823
5845 5846 5847 5848 5849 5850 5850 5851 5852 5852 5852 5852 5853 5853 5853 5853 5853 5853 5853 5852 5852 5851 5851 5850 5849 5848 5847 5846 5844 5843 5841 5840 5838 5837 5835 5833 5831 5829 5827 5824 5822 5819 5817
5841 5842 5843 5844 5845 5846 5847 5848 5848 5848 5848 5849 5849 5849 5849 5849 5849 5849 5849 5848 5848 5848 5847 5846 5845 5844 5843 5842 5841 5839 5837 5836 5834 5832 5830 5828 5825 5823 5821 5818 5815 5812 5809
5837 5839 5840 5841 5842 5843 5843 5844 5844 5844 5845 5845 5845 5846 5845 5845 5845 5845 5845 5844 5844 5844 5843 5842 5841 5840 5839 5837 5836 5834 5833 5831 5829 5827 5824 5822 5819 5817 5814 5811 5808 5805 5802
5834 5835 5836 5837 5838 5839 5839 5840 5840 5841 5841 5841 5841 5841 5841 5841 5841 5841 5840 5840 5839 5839 5838 5838 5837 5835 5834 5833 5831 5829 5828 5825 5823 5821 5818 5816 5813 5810 5807 5804 5801 5798 5794
5830 5831 5832 5833 5834 5835 5835 5836 5836 5836 5837 5837 5837 5837 5837 5837 5836 5836 5835 5835 5834 5834 5833 5833 5832 5831 5829 5828 5826 5824 5822 5819 5817 5815 5812 5809 5806 5803 5800 5796 5792 5788 5784
5825 5826 5828 5829 5829 5830 5831 5832 5832 5832 5832 5832 5832 5832 5832 5832 5831 5831 5830 5829 5829 5828 5828 5827 5826 5825 5823 5822 5820 5818 5815 5813 5811 5808 5805 5802 5798 5794 5791 5787 5783 5779 5774
5821 5822 5823 5824 5825 5826 5826 5827 5827 5828 5828 5828 5827 5827 5827 5827 5826 5826 5825 5823 5823 5822 5822 5821 5820 5819 5817 5816 5814 5812 5809 5806 5803 5800 5797 5793 5789 5785 5781 5777 5772 5768 5763
5817 5818 5819 5820 5820 5821 5822 5822 5823 5823 5823 5823 5823 5823 5822 5822 5821 5820 5819 5818 5817 5816 5816 5815 5814 5813 5811 5809 5807 5805 5802 5799 5796 5792 5788 5784 5780 5776 5771 5766 5761 5757 5751
5812 5813 5814 5815 5816 5817 5817 5818 5818 5818 5819 5819 5818 5818 5818 5817 5816 5815 5814 5813 5812 5811 5810 5809 5808 5806 5804 5802 5799 5797 5794 5791 5787 5783 5779 5775 5771 5766 5760 5755 5750 5745 5740
5807 5808 5809 5810 5811 5812 5813 5813 5813 5813 5813 5813 5813 5813 5813 5812 5811 5810 5809 5808 5807 5806 5804 5803 5801 5799 5797 5794 5792 5789 5785 5782 5778 5774 5770 5766 5761 5756 5750 5744 5739 5733 5728
5802 5803 5804 5805 5806 5807 5807 5808 5808 5808 5808 5808 5808 5808 5807 5806 5805 5804 5803 5802 5801 5799 5798 5796 5794 5792 5789 5786 5783 5780 5776 5772 5768 5765 5760 5756 5750 5745 5740 5734 5728 5722 5716
5798 5799 5800 5800 5801 5802 5803 5803 5803 5803 5803 5803 5803 5802 5802 5801 5799 5798 5797 5796 5794 5792 5791 5788 5786 5783 5780 5777 5774 5770 5766 5762 5758 5754 5750 5745 5740 5734 5729 5723 5717 5711 5705
5793 5794 5795 5796 5796 5797 5797 5797 5798 5798 5798 5798 5797 5796 5796 5795 5793 5792 5790 5789 5787 5785 5783 5781 5778 5775 5772 5768 5765 5761 5757 5753 5748 5744 5739 5734 5729 5723 5717 5711 5705 5699 5693
5787 5788 5789 5790 5791 5791 5791 5792 5792 5792 5792 5791 5791 5790 5789 5788 5787 5785 5784 5782 5780 5778 5775 5772 5770 5766 5763 5759 5755 5751 5747 5743 5738 5733 5728 5723 5717 5712 5706 5699 5693 5686 5680
5782 5783 5784 5784 5785 5785 5786 5786 5786 5786 5785 5785 5784 5783 5782 5781 5780 5778 5776 5775 5772 5770 5767 5764 5761 5757 5754 5750 5746 5742 5737 5733 5728 5723 5717 5712 5706 5700 5694 5687 5680 5674 5667
5776 5777 5778 5778 5779 5779 5780 5780 5780 5780 5779 5778 5777 5776 5775 5774 5772 5771 5769 5767 5764 5762 5759 5756 5752 5749 5745 5741 5737 5732 5727 5722 5717 5712 5706 5700 5694 5688 5682 5675 5668 5662 5655
5770 5771 5771 5772 5773 5773 5773 5773 5773 5773 5772 5771 5770 5769 5768 5766 5765 5763 5761 5759 5756 5753 5750 5747 5743 5739 5736 5731 5727 5722 5717 5712 5707 5701 5695 5689 5683 5677 5670 5663 5657 5650 5643
5763 5764 5765 5765 5766 5766 5766 5766 5766 5765 5765 5764 5763 5762 5760 5759 5757 5755 5753 5750 5747 5744 5741 5737 5734 5730 5726 5722 5717 5712 5707 5701 5696 5690 5684 5678 5672 5666 5659 5652 5646 5639 5632
5756 5757 5758 5758 5759 5759 5759 5759 5759 5758 5757 5756 5755 5754 5752 5751 5749 5747 5744 5741 5738 5735 5731 5728 5724 5720 5716 5711 5707 5702 5696 5691 5685 5680 5674 5668 5661 5655 5648 5641 5635 5628 5622
5749 5750 5750 5751 5751 5751 5751 5751 5751 5750 5749 5748 5747 5745 5744 5742 5740 5738 5735 5732 5729 5725 5722 5718 5714 5710 5706 5701 5696 5691 5686 5680 5675 5669 5663 5657 5651 5644 5638 5631 5624 5618 5611
5741 5742 5742 5743 5743 5743 5743 5743 5742 5741 5740 5739 5738 5737 5735 5733 5730 5728 5725 5722 5719 5716 5712 5708 5704 5700 5695 5690 5685 5680 5675 5670 5664 5658 5652 5646 5640 5634 5627 5621 5614 5607 5601
5733 5733 5734 5734 5735 5735 5734 5734 5733 5732 5732 5731 5729 5727 5725 5723 5721 5718 5715 5712 5709 5705 5702 5697 5693 5689 5684 5679 5674 5669 5664 5658 5653 5647 5642 5636 5630 5623 5617 5610 5603 5597 5590
5724 5725 5726 5726 5726 5726 5726 5725 5724 5723 5722 5721 5719 5718 5715 5713 5711 5708 5705 5702 5699 5695 5691 5687 5683 5678 5674 5669 5664 5659 5653 5648 5642 5637 5631 5625 5619 5613 5606 5600 5593 5586 5580
5716 5716 5716 5717 5717 5717 5716 5715 5715 5713 5712 5711 5709 5707 5705 5703 5700 5698 5695 5692 5688 5685 5681 5677 5672 5668 5663 5658 5653 5648 5643 5638 5632 5626 5620 5614 5608 5602 5596 5589 5583 5576 5570